BREEZE-KM DEB, 41719

Orbit data source: Space-Track

BREEZE-KM DEB, 41719 is space debris in LEO originally from a launch on Tue, 31 Mar 2015 UTC launched from the Plesetsk Missile And Space Complex (PKMTR). Debris objects in space refer to the collection of defunct objects orbiting the Earth. Examples of debris include non-operational satellites, rocket bodies, and fragments generated from explosions, collisions, or faulty payload assembly.

Loading next visibility...
Identifier
41719, 2015-020G
Orbit
LEO
Country
Flag of CISCIS
Related business
Manufacturer
Khrunichev
Mission
Spacecraft
Bus & Motor
Unknown
Mass
Unknown
Launch date (UTC)
2015-03-31 (10 years ago)
Launch vehicle
Unknown
Launch site
Plesetsk Missile And Space Complex (PKMTR)
Object type
Payload
Rocket body
Debris
Shape & HBR
Unknown
Radar Cross Section
Small (<0.1 m²)

Expand to show TLE details & history
Last TLE update: 16 hours ago

TLE from 16 hours ago
0 BREEZE-KM DEB
1 41719U 15020G   25243.25794583  .00000037  00000-0  10061-3 0  9990
2 41719  82.4869  65.1459 0222744  84.7692 277.8781 12.75174829475505
Epoch: 2025-08-31T06:11Z
TLE epoch observation values (Epoch: 2025-08-31T06:11:26.519Z)
Latitude
0.00001°
Longitude
-7.39507°
Altitude
1,343.831 km
Speed
7.195 km/s
True Right ascension
04h 20m 35s
True Declination
0° 00' 00"
Sunlit
Object was in daylight at epoch
Visualization orbit readout
Latitude
Unknown
Longitude
Unknown
Altitude
Unknown
Speed
Unknown
Apparent Right ascension
Unknown
Apparent Declination
Unknown
Sunlit
N/A
Visualization observer readout
Local Sidereal Time
13:53:39
Azimuth
Unknown
Elevation
Unknown
Doppler factor
Unknown
Orbital elements
Apogee altitude
1,530.558 km
Perigee altitude
1,185.912 km
Semi-major axis
7,736.372 km
Eccentricity
0.02227
Inclination
82.4869°
RAAN
65.1459°
Arg. of periapsis
84.7692°
True anomaly
275.34088°
Mean anomaly
277.8781°
Eccentric anomaly
276.61036°
Mean motion
3.18961 °/min
Orbital period
112.87 mins
BSTAR
0.00010061
Loading maneuver chart data...
Computing Atmospheric mass density...
Loading historical data...
Loading historical data...
Loading historical data...
Loading historical data...
Loading historical data...
Loading historical data...
Loading historical data...

Documentation

Showing up to 5 results
|